Date String (YYYY-MM-DD hh:mm:ss) UTC,Instrument flags,absolute air pressure of the measurement (hPa),sample flow rate (lpm),inlet stack bypass flow (lpm),air temperature of the measurement (°C),ambient temperature measured by the external sensor (°C),aerosol sample conditioner tube jacket temperature (°C),OPC LED temperature (°C),internal box temperature (°C),relative humidity of the measurement (%),span deviation,mass concentration of particles derived from Lorenz-Mie calculation of OPC scattering (μg/m³),mass concentration of particles derived from Lorenz-Mie calculation of OPC scattering (μg/m³),mass concentration of particles derived from Lorenz-Mie calculation of OPC scattering (μg/m³)
DateTimeUTC,F1_M11,P_M11,Q1_M11,Q2_M11,T1_M11,T2_M11,T3_M11,T4_M11,T5_M11,U1_M11,ZSPAN_M11,X0_M11,X2_M11,X1_M11
2024-02-29 03:00:00,SystemResetWarning,0827.8,5.00,000.00,021.2,020.4,000.0,029.7,023.0,06.8,0000.0,0009.51,0003.57,0001.77
2024-02-29 03:01:00,SystemResetWarning,0827.8,4.99,000.00,021.2,020.4,000.0,029.7,022.9,06.8,0000.0,0009.44,0003.58,0001.77
2024-02-29 03:02:00,SystemResetWarning,0827.8,5.00,000.00,021.2,020.4,000.0,029.7,022.9,06.8,0000.0,0009.29,0003.56,0001.78
2024-02-29 03:03:00,SystemResetWarning,0827.9,5.00,000.00,021.2,020.4,000.0,029.7,022.9,06.8,0000.0,0009.86,0003.56,0001.81
2024-02-29 03:04:00,SystemResetWarning,0827.8,5.01,000.00,021.2,020.4,000.0,029.7,022.9,06.7,0000.0,0009.96,0003.58,0001.82
2024-02-29 03:05:00,SystemResetWarning,0827.7,5.01,000.00,021.2,020.4,000.0,029.6,022.9,06.7,0000.0,0009.81,0003.61,0001.84
2024-02-29 03:06:00,SystemResetWarning,0827.8,5.01,000.00,021.1,020.4,000.0,029.6,022.9,06.7,0000.0,0009.48,0003.58,0001.83
2024-02-29 03:07:00,SystemResetWarning,0827.7,5.00,000.00,021.1,020.4,000.0,029.6,022.8,06.8,0000.0,0009.47,0003.57,0001.82
2024-02-29 03:08:00,SystemResetWarning,0827.8,5.00,000.00,021.1,020.4,000.0,029.6,022.8,06.7,0000.0,0009.45,0003.51,0001.83
2024-02-29 03:09:00,SystemResetWarning,0827.7,5.00,000.00,021.1,020.4,000.0,029.6,022.8,06.7,0000.0,0009.35,0003.50,0001.83
2024-02-29 03:10:00,SystemResetWarning,0827.7,4.99,000.00,021.1,020.3,000.0,029.6,022.8,06.7,0000.0,0009.16,0003.51,0001.84
2024-02-29 03:11:00,SystemResetWarning,0827.7,4.99,000.00,021.1,020.3,000.0,029.6,022.8,06.7,0000.0,0009.29,0003.53,0001.84
2024-02-29 03:12:00,SystemResetWarning,0827.7,5.01,000.00,021.1,020.3,000.0,029.6,022.8,06.8,0000.0,0009.47,0003.59,0001.85
2024-02-29 03:13:00,SystemResetWarning,0827.7,5.01,000.00,021.1,020.3,000.0,029.6,022.8,06.8,0000.0,0009.61,0003.63,0001.87
2024-02-29 03:14:00,SystemResetWarning,0827.7,5.00,000.00,021.1,020.3,000.0,029.6,022.8,06.9,0000.0,0009.07,0003.66,0001.87
2024-02-29 03:15:00,SystemResetWarning,0827.8,5.00,000.00,021.1,020.3,000.0,029.6,022.8,07.0,0000.0,0008.84,0003.62,0001.86
2024-02-29 03:16:00,SystemResetWarning,0827.8,5.00,000.00,021.1,020.3,000.0,029.6,022.8,06.9,0000.0,0008.73,0003.64,0001.86
2024-02-29 03:17:00,SystemResetWarning,0827.8,5.00,000.00,021.1,020.3,000.0,029.6,022.8,06.9,0000.0,0008.46,0003.67,0001.86
2024-02-29 03:18:00,SystemResetWarning,0827.8,5.00,000.00,021.1,020.3,000.0,029.6,022.8,06.8,0000.0,0008.38,0003.67,0001.89
2024-02-29 03:19:00,SystemResetWarning,0827.8,5.00,000.00,021.1,020.3,000.0,029.6,022.9,07.1,0000.0,0008.35,0003.69,0001.89
2024-02-29 03:20:00,SystemResetWarning,0827.7,5.00,000.00,021.1,020.3,000.0,029.6,022.9,07.2,0000.0,0008.44,0003.74,0001.89
2024-02-29 03:21:00,SystemResetWarning,0827.8,4.99,000.00,021.1,020.4,000.0,029.6,022.9,07.1,0000.0,0008.50,0003.79,0001.90
2024-02-29 03:22:00,SystemResetWarning,0827.8,5.00,000.00,021.1,020.4,000.0,029.6,022.9,07.1,0000.0,0008.51,0003.80,0001.91
2024-02-29 03:23:00,SystemResetWarning,0827.8,5.00,000.00,021.1,020.4,000.0,029.6,022.9,07.2,0000.0,0008.87,0003.77,0001.90
2024-02-29 03:24:00,SystemResetWarning,0827.8,5.00,000.00,021.1,020.4,000.0,029.6,023.0,07.0,0000.0,0008.93,0003.75,0001.87
2024-02-29 03:25:00,SystemResetWarning,0827.8,5.00,000.00,021.1,020.4,000.0,029.6,023.0,07.0,0000.0,0008.85,0003.73,0001.87
2024-02-29 03:26:00,SystemResetWarning,0827.8,5.00,000.00,021.2,020.4,000.0,029.6,023.0,07.1,0000.0,0009.00,0003.81,0001.87
2024-02-29 03:27:00,SystemResetWarning,0827.8,5.00,000.00,021.2,020.4,000.0,029.5,023.0,06.9,0000.0,0009.03,0003.76,0001.88
2024-02-29 03:28:00,SystemResetWarning,0827.7,5.00,000.00,021.2,020.4,000.0,029.5,023.0,06.8,0000.0,0009.67,0003.77,0001.88
2024-02-29 03:29:00,SystemResetWarning,0827.8,4.99,000.00,021.2,020.4,000.0,029.6,023.0,06.7,0000.0,0010.08,0003.81,0001.87
2024-02-29 03:30:00,SystemResetWarning,0827.8,5.00,000.00,021.2,020.4,000.0,029.6,022.9,06.6,0000.0,0010.26,0003.82,0001.87
2024-02-29 03:31:00,SystemResetWarning,0827.7,5.01,000.00,021.1,020.4,000.0,029.6,022.9,06.6,0000.0,0010.57,0003.77,0001.87
2024-02-29 03:32:00,SystemResetWarning,0827.7,5.00,000.00,021.1,020.4,000.0,029.6,022.9,06.6,0000.0,0010.51,0003.70,0001.85
2024-02-29 03:33:00,SystemResetWarning,0827.7,5.00,000.00,021.1,020.4,000.0,029.6,022.9,06.7,0000.0,0010.68,0003.70,0001.84
2024-02-29 03:34:00,SystemResetWarning,0827.7,4.99,000.00,021.1,020.3,000.0,029.5,022.9,06.7,0000.0,0010.56,0003.68,0001.84
2024-02-29 03:35:00,SystemResetWarning,0827.7,4.99,000.00,021.1,020.3,000.0,029.5,022.9,06.7,0000.0,0010.57,0003.69,0001.85
2024-02-29 03:36:00,SystemResetWarning,0827.7,5.00,000.00,021.1,020.3,000.0,029.5,022.9,06.7,0000.0,0010.58,0003.68,0001.85
2024-02-29 03:37:00,SystemResetWarning,0827.7,5.00,000.00,021.1,020.3,000.0,029.5,022.8,06.7,0000.0,0010.57,0003.65,0001.84
2024-02-29 03:38:00,SystemResetWarning,0827.7,5.00,000.00,021.1,020.3,000.0,029.5,022.8,06.8,0000.0,0010.60,0003.68,0001.84
2024-02-29 03:39:00,SystemResetWarning,0827.7,5.00,000.00,021.1,020.3,000.0,029.5,022.9,06.8,0000.0,0010.06,0003.69,0001.84
2024-02-29 03:40:00,SystemResetWarning,0827.7,5.01,000.00,021.1,020.3,000.0,029.6,022.9,06.8,0000.0,0010.30,0003.71,0001.84
2024-02-29 03:41:00,SystemResetWarning,0827.8,5.01,000.00,021.1,020.3,000.0,029.6,022.9,07.0,0000.0,0010.46,0003.70,0001.83
2024-02-29 03:42:00,SystemResetWarning,0827.8,5.00,000.00,021.1,020.3,000.0,029.5,022.9,07.0,0000.0,0010.03,0003.72,0001.82
2024-02-29 03:43:00,SystemResetWarning,0827.8,5.00,000.00,021.1,020.3,000.0,029.5,022.9,07.0,0000.0,0009.95,0003.75,0001.82
2024-02-29 03:44:00,SystemResetWarning,0827.8,4.99,000.00,021.1,020.3,000.0,029.5,022.9,06.9,0000.0,0009.74,0003.73,0001.83
2024-02-29 03:45:00,SystemResetWarning,0827.8,4.99,000.00,021.1,020.3,000.0,029.5,022.9,06.8,0000.0,0009.82,0003.71,0001.82
2024-02-29 03:46:00,SystemResetWarning,0827.8,4.99,000.00,021.1,020.3,000.0,029.5,022.9,06.8,0000.0,0009.18,0003.68,0001.83
2024-02-29 03:47:00,SystemResetWarning,0827.7,5.00,000.00,021.1,020.4,000.0,029.5,023.0,06.8,0000.0,0009.06,0003.65,0001.83
2024-02-29 03:48:00,SystemResetWarning,0827.7,5.00,000.00,021.1,020.4,000.0,029.5,023.0,06.5,0000.0,0009.18,0003.66,0001.85
2024-02-29 03:49:00,SystemResetWarning,0827.7,5.00,000.00,021.1,020.4,000.0,029.5,022.9,06.3,0000.0,0009.05,0003.61,0001.84
2024-02-29 03:50:00,SystemResetWarning,0827.7,5.01,000.00,021.1,020.4,000.0,029.5,022.9,06.2,0000.0,0009.08,0003.61,0001.84
2024-02-29 03:51:00,SystemResetWarning,0827.7,5.01,000.00,021.1,020.4,000.0,029.5,022.9,06.3,0000.0,0009.57,0003.61,0001.83
2024-02-29 03:52:00,SystemResetWarning,0827.8,5.00,000.00,021.1,020.3,000.0,029.5,022.9,06.2,0000.0,0009.27,0003.62,0001.84
2024-02-29 03:53:00,SystemResetWarning,0827.8,4.99,000.00,021.1,020.3,000.0,029.5,022.9,06.3,0000.0,0010.00,0003.62,0001.84
2024-02-29 03:54:00,SystemResetWarning,0827.8,4.99,000.00,021.1,020.3,000.0,029.5,022.8,06.5,0000.0,0009.94,0003.57,0001.83
2024-02-29 03:55:00,SystemResetWarning,0827.8,5.01,000.00,021.1,020.3,000.0,029.5,022.8,06.6,0000.0,0009.90,0003.55,0001.84
2024-02-29 03:56:00,SystemResetWarning,0827.8,5.01,000.00,021.1,020.3,000.0,029.5,022.8,06.7,0000.0,0009.63,0003.50,0001.83
2024-02-29 03:57:00,SystemResetWarning,0827.7,5.01,000.00,021.1,020.3,000.0,029.5,022.8,06.7,0000.0,0009.77,0003.53,0001.84
2024-02-29 03:58:00,SystemResetWarning,0827.8,4.98,000.00,021.1,020.3,000.0,029.5,022.8,06.7,0000.0,0009.78,0003.53,0001.85
2024-02-29 03:59:00,SystemResetWarning,0827.8,4.99,000.00,021.1,020.3,000.0,029.5,022.9,06.7,0000.0,0009.88,0003.56,0001.86
